Sarasota, FL

8:03 PM EST on November 17, 2019 (GMT -0500)
Sarasota-bradenton

Weather History for KSRQ - September, 2019

Change the Weather History Date:

Monday, September 23, 2019

  Actual Average Record
Temperature  
Mean Temperature 81 °F 81 °F  
Max Temperature 91 °F 88 °F 96 °F (1987)
Min Temperature 71 °F 74 °F 62 °F (1913)
Degree Days  
Heating Degree Days 0 0  
Month to date heating degree days 0 0  
Since 1 July heating degree days 0 0  
Cooling Degree Days 16 16  
Month to date cooling degree days 472 385  
Year to date cooling degree days 3330 2682  
Growing Degree Days 31 (Base 50)    
Moisture  
Dew Point 66 °F    
Average Humidity 64    
Maximum Humidity 84    
Minimum Humidity 40    
Precipitation  
Precipitation 0.00 in 0.19 in 3.40 in (1947)
Month to date precipitation 1.99 6.00  
Year to date precipitation 43.38 44.33  
Sea Level Pressure  
Sea Level Pressure 29.98 in    
Wind  
Wind Speed 6 mph ()    
Max Wind Speed 15 mph    
Max Gust Speed 21 mph    
Visibility 10.0 miles    
Events      
T = Trace of Precipitation, MM = Missing Value Source: Averaged Metar Reports

Daily Weather History Graph

Daily Weather History Graph

Search for Another Location

Airport or City:

Astronomy

Sep. 23, 2019 Rise Set
Actual Time 7:19 AM EDT 7:25 PM EDT
Civil Twilight 6:55 AM EDT 7:49 PM EDT
Nautical Twilight 6:28 AM EDT 8:16 PM EDT
Astronomical Twilight 6:01 AM EDT 8:43 PM EDT
Moon 1:34 AM EDT (9/23) 3:45 PM EDT (9/23)
Length of Visible Light 12h 53m
Length of Day
12h 06m
Waning Crescent, 33% of the Moon is Illuminated
Sep 23
Waning Crescent
Sep 28
New
Oct 5
First Quarter
Oct 13
Full
Oct 21
Last Quarter

Hourly Weather History & Observations

Time (EDT) Temp. Heat Index Dew Point Humidity Pressure Visibility Wind Dir Wind Speed Gust Speed Precip Events Conditions
12:53 AM 75.0 °F - 66.9 °F 76% 30.03 in 10.0 mi NE 5.8 mph - N/A   Clear
1:53 AM 73.0 °F - 66.9 °F 81% 30.02 in 10.0 mi NE 4.6 mph - N/A   Clear
2:53 AM 72.0 °F - 66.9 °F 84% 30.01 in 10.0 mi NNE 3.5 mph - N/A   Clear
3:53 AM 72.0 °F - 66.9 °F 84% 29.99 in 10.0 mi NNE 4.6 mph - N/A   Partly Cloudy
4:53 AM 72.0 °F - 66.9 °F 84% 29.98 in 10.0 mi NE 5.8 mph - N/A   Scattered Clouds
5:53 AM 71.1 °F - 66.0 °F 84% 29.99 in 10.0 mi NE 3.5 mph - N/A   Clear
6:53 AM 71.1 °F - 66.0 °F 84% 30.00 in 10.0 mi NE 4.6 mph - N/A   Clear
7:53 AM 72.0 °F - 66.9 °F 84% 30.01 in 10.0 mi NE 6.9 mph - N/A   Clear
8:53 AM 77.0 °F - 66.9 °F 71% 30.04 in 10.0 mi NE 9.2 mph - N/A   Clear
9:53 AM 82.0 °F 84.1 °F 66.0 °F 58% 30.04 in 10.0 mi NE 6.9 mph - N/A   Clear
10:53 AM 84.0 °F 85.8 °F 64.9 °F 53% 30.04 in 10.0 mi ENE 10.4 mph - N/A   Clear
11:53 AM 84.9 °F 87.1 °F 66.0 °F 53% 30.02 in 10.0 mi NE 10.4 mph 18.4 mph N/A   Scattered Clouds
12:53 PM 86.0 °F 87.6 °F 64.9 °F 49% 30.01 in 10.0 mi East 8.1 mph - N/A   Mostly Cloudy
1:53 PM 87.1 °F 88.9 °F 64.9 °F 48% 29.99 in 10.0 mi NE 11.5 mph - N/A   Mostly Cloudy
2:53 PM 90.0 °F 91.3 °F 64.0 °F 42% 29.96 in 10.0 mi East 9.2 mph - N/A   Mostly Cloudy
3:53 PM 88.0 °F 88.4 °F 62.1 °F 42% 29.94 in 10.0 mi ENE 6.9 mph - N/A   Partly Cloudy
4:53 PM 89.1 °F 89.3 °F 62.1 °F 40% 29.92 in 10.0 mi ENE 10.4 mph - N/A   Partly Cloudy
5:53 PM 90.0 °F 90.6 °F 63.0 °F 40% 29.91 in 10.0 mi NE 13.8 mph 17.3 mph N/A   Partly Cloudy
6:53 PM 87.1 °F 87.8 °F 63.0 °F 44% 29.91 in 10.0 mi NNE 5.8 mph - N/A   Clear
7:53 PM 82.9 °F 84.6 °F 64.9 °F 54% 29.92 in 10.0 mi NE 5.8 mph - N/A   Clear
8:53 PM 81.0 °F 83.8 °F 68.0 °F 65% 29.93 in 10.0 mi ENE 6.9 mph - N/A   Clear
9:53 PM 80.1 °F 82.9 °F 69.1 °F 69% 29.95 in 10.0 mi East 10.4 mph - N/A   Clear
10:53 PM 79.0 °F - 68.0 °F 69% 29.96 in 10.0 mi East 8.1 mph - N/A   Clear
11:53 PM 78.1 °F - 69.1 °F 74% 29.96 in 10.0 mi East 8.1 mph - N/A   Clear